Wind_Speed
35 33 28 26 24 23 24 18 14 15 15 18 17 17 19 19 19 20 17 16 16 15 15 12 10 10 10 9 8 15 27 26 14 11 23 21 29 29 24 19 17 17 17
34 31 29 25 24 22 22 22 16 14 14 14 17 19 20 20 19 21 20 19 19 19 14 11 8 8 9 5 7 11 13 25 25 15 20 24 29 33 28 23 21 20 18
32 28 27 25 24 22 21 21 21 20 18 16 18 20 22 22 20 23 22 9 5 11 10 13 15 14 13 18 16 19 14 14 16 17 16 26 29 32 31 26 25 23 20
30 28 27 26 24 22 17 17 16 18 17 18 19 20 21 20 22 17 9 25 20 13 5 4 6 9 21 22 24 25 15 8 10 15 17 22 28 30 32 30 27 26 24
29 29 28 26 22 21 18 16 18 16 14 14 18 20 19 19 19 6 23 5 22 20 22 18 31 25 28 19 15 20 23 19 10 12 10 11 21 18 29 29 29 27 25
27 24 21 21 19 18 16 16 14 10 9 11 14 15 16 15 15 5 13 17 19 31 26 31 27 22 27 26 22 19 18 22 22 12 19 18 23 30 30 29 27 20 11
23 20 20 19 17 13 10 9 9 10 9 7 5 6 8 10 11 10 15 20 19 25 26 36 31 27 29 22 13 14 18 21 15 12 19 21 22 31 33 30 29 29 27
25 23 19 17 15 12 10 7 6 4 4 3 6 8 10 10 10 13 12 17 26 23 27 28 30 29 23 30 23 18 20 25 21 21 18 14 17 24 32 35 36 32 25
23 18 15 14 13 11 10 7 6 3 1 3 5 10 10 12 9 10 13 17 20 23 23 23 24 24 24 22 23 22 23 25 26 22 23 21 18 17 14 24 24 22 17
20 18 15 14 13 11 11 9 5 1 2 6 7 9 8 11 15 16 19 18 16 12 14 15 13 12 12 18 21 22 22 26 23 23 24 26 25 23 20 21 25 25 18
19 18 17 16 15 13 11 7 3 2 4 5 7 4 7 11 18 24 7 6 10 9 12 11 12 7 10 10 14 24 26 20 23 18 21 26 28 29 28 26 27 32 31
22 21 18 16 13 10 7 4 2 5 8 11 6 4 5 10 16 18 18 11 8 11 12 10 9 7 11 12 13 15 19 19 22 25 22 25 26 26 25 25 28 33 36
22 19 15 12 10 9 5 4 4 7 7 3 4 6 10 10 15 15 14 12 10 11 12 12 10 10 11 12 14 18 20 22 23 25 27 28 26 25 23 23 25 30 34
24 21 16 12 9 6 6 4 4 5 6 8 11 16 16 17 18 18 17 17 15 13 11 12 13 13 11 14 14 17 18 24 26 28 28 27 24 23 26 27 27 30 29
20 16 13 8 6 5 10 13 15 16 16 20 22 21 19 20 19 19 19 18 17 15 14 12 12 15 15 15 14 16 18 20 24 26 30 28 24 23 27 29 30 32 27
21 15 13 12 11 18 22 27 21 20 23 27 23 20 21 20 18 18 16 14 16 17 17 19 18 19 18 21 22 20 17 17 23 26 28 30 29 29 28 23 28 31 29
20 17 17 20 18 16 20 25 30 28 23 22 22 22 20 19 21 21 17 16 21 21 21 17 17 19 21 21 20 21 23 24 21 22 26 26 26 26 25 27 24 27 27
18 20 19 17 15 19 21 20 21 19 16 16 19 21 20 21 23 24 23 22 25 23 18 17 16 18 19 21 23 20 22 21 22 23 24 25 25 24 21 22 25 24 25
19 17 15 14 19 24 23 25 23 21 18 17 18 20 22 20 24 27 27 27 20 19 20 21 21 20 21 22 23 23 24 23 22 23 24 24 25 23 24 25 25 30 29
14 16 17 24 23 23 24 23 22 21 18 20 22 21 20 21 28 27 25 24 23 21 21 22 23 24 24 23 24 24 24 24 25 23 23 26 26 25 25 25 25 24 27
18 22 24 23 22 25 23 22 21 20 19 19 20 19 20 22 19 18 19 20 23 23 23 22 24 23 24 24 25 25 25 25 24 25 23 23 28 27 29 28 27 27 27
24 21 21 24 25 24 22 20 19 19 19 19 17 18 19 22 20 19 19 21 23 24 24 23 23 24 23 23 25 26 26 26 24 28 31 30 28 29 30 29 28 28 28
22 20 22 26 24 23 20 18 18 18 17 15 13 14 16 17 20 19 19 21 24 25 26 27 26 27 27 27 25 25 25 25 34 33 33 33 32 26 29 31 31 29 30
21 25 27 25 21 20 18 18 15 13 12 12 10 11 11 13 16 20 20 21 22 23 24 27 28 28 30 28 28 28 30 34 35 34 29 29 30 31 26 30 33 33 34
24 25 24 22 20 19 17 14 11 8 7 6 6 6 7 10 15 19 20 21 23 24 25 26 27 29 29 28 30 32 33 32 32 32 33 31 28 30 31 29 30 33 37
23 22 19 17 16 15 14 13 12 11 8 7 7 7 8 9 14 17 20 21 22 23 22 24 24 25 27 30 32 36 37 37 33 31 33 34 30 28 27 27 28 30 33
Wind_Direction
206 209 210 209 211 219 224 228 239 240 235 220 235 227 230 238 240 237 243 244 245 243 243 252 258 269 267 258 264 234 224 219 213 216 216 221 209 210 208 208 205 202 202
206 206 209 210 213 215 219 218 223 230 228 230 239 242 242 243 241 240 246 249 248 254 237 240 258 252 245 284 297 276 254 235 227 218 210 207 210 211 213 208 207 207 212
202 200 204 206 211 217 219 221 226 230 239 245 242 243 244 246 256 260 266 291 32 78 82 58 21 348 293 273 289 288 271 261 228 226 208 207 205 208 206 210 211 214 220
196 195 200 202 207 211 217 220 229 233 241 252 257 261 264 270 269 276 86 86 63 60 2 293 264 271 266 257 252 248 235 269 263 235 213 201 200 205 208 206 213 219 224
191 194 202 203 208 217 222 223 224 235 250 269 265 265 271 279 286 179 117 59 309 279 247 244 235 246 247 279 257 247 235 241 283 240 213 188 189 185 199 212 217 220 226
188 187 181 182 198 209 220 217 224 240 249 267 278 284 297 302 301 256 210 236 251 245 250 246 236 234 246 266 255 261 252 229 221 250 226 201 201 204 202 213 211 206 214
171 175 179 186 194 202 200 195 215 244 263 271 289 315 328 332 321 315 215 216 227 237 246 257 261 257 250 250 265 262 265 227 229 236 240 223 214 212 214 212 218 218 225
168 169 172 177 184 187 188 208 217 206 242 299 328 333 332 345 309 294 285 249 239 252 252 259 261 268 263 256 254 262 254 228 236 240 239 230 232 241 234 232 231 226 229
170 178 178 179 180 176 177 188 162 156 285 331 333 343 345 354 354 328 296 263 247 251 256 258 267 266 274 260 256 252 249 249 242 247 247 246 226 220 227 230 221 209 218
168 170 180 189 175 166 153 154 153 142 335 331 341 350 17 12 4 337 315 266 250 277 278 277 265 288 287 257 257 257 256 251 245 248 240 235 237 231 225 230 232 207 217
161 160 166 167 156 154 155 154 161 289 307 318 335 17 20 34 38 28 8 274 283 306 306 301 308 301 298 284 260 253 257 252 251 251 251 248 244 240 235 233 233 229 217
156 153 153 151 155 153 162 170 291 292 311 329 322 83 53 53 36 41 42 39 358 348 339 336 316 296 289 280 274 261 256 257 251 260 261 248 244 241 239 241 237 236 233
158 154 159 159 158 165 192 236 285 328 340 83 79 50 71 62 48 46 40 30 10 351 338 327 310 294 289 279 284 282 264 249 250 253 253 250 249 250 250 247 244 237 238
167 168 169 171 180 203 226 272 320 93 94 80 77 86 74 59 48 40 31 20 9 357 339 312 312 308 294 283 283 275 273 257 249 246 247 257 259 252 247 243 237 229 229
167 168 166 186 168 123 99 95 94 91 101 100 93 84 68 54 44 34 23 17 11 5 354 1 337 313 302 298 299 294 280 269 255 257 249 250 249 252 250 247 236 229 215
170 167 153 141 128 126 112 105 86 100 98 91 82 73 68 63 46 29 29 33 28 25 24 10 357 349 332 320 300 284 278 276 270 264 256 250 246 243 240 232 231 222 219
141 142 133 132 125 124 128 120 113 99 96 79 68 66 55 36 28 38 40 40 34 27 24 8 356 348 337 334 333 313 283 283 279 268 259 255 251 245 237 234 223 219 221
148 138 130 129 120 127 126 120 122 124 100 68 56 51 42 37 38 36 35 35 27 22 17 1 345 338 334 328 326 334 333 303 271 264 257 256 252 245 238 231 225 218 223
139 130 128 125 129 125 120 115 109 100 91 64 42 32 30 30 36 38 36 35 22 9 359 352 347 340 335 335 330 328 324 322 307 280 259 256 256 242 235 234 231 229 225
139 134 134 128 125 120 119 113 104 96 84 63 52 40 34 34 36 29 26 21 13 4 359 353 351 349 344 339 335 333 326 318 311 297 276 267 263 253 242 238 233 226 225
138 139 133 127 127 127 118 111 106 99 90 76 65 55 49 48 34 24 16 13 9 2 354 347 344 342 342 338 336 329 328 322 321 317 290 274 268 254 250 244 242 234 228
138 129 125 128 127 122 116 112 105 98 92 85 74 59 46 46 34 26 19 13 8 5 360 355 348 349 346 339 338 334 331 331 325 317 314 318 272 256 251 245 241 238 231
135 132 132 133 129 124 114 107 104 102 98 89 77 57 44 37 30 22 22 13 9 7 7 6 3 357 354 351 350 347 338 328 326 320 313 303 306 272 248 242 238 236 233
138 138 137 137 134 121 113 108 107 108 103 88 67 49 42 31 22 15 11 4 360 359 6 7 5 360 355 352 348 345 338 332 331 333 327 307 295 294 292 251 240 238 235
138 140 135 132 130 124 117 108 98 103 102 73 35 20 29 22 15 8 1 359 358 357 359 359 360 0 0 355 352 346 339 336 336 337 331 324 302 289 285 288 279 246 237
140 137 135 136 136 133 121 109 101 94 79 56 67 77 61 31 7 1 359 360 358 358 358 356 352 353 356 356 355 352 346 341 338 338 338 336 330 312 290 282 281 296 243
Height
798 802 807 812 816 819 821 824 825 826 827 829 829 830 831 831 832 834 836 837 838 838 839 839 839 839 840 840 838 836 836 838 840 843 844 846 849 853 855 858 860 862 864
795 799 804 809 812 815 817 820 823 824 825 826 827 827 828 829 832 833 832 833 833 834 833 835 836 835 835 836 838 838 835 835 835 837 840 841 845 848 852 855 857 860 862
793 796 800 805 808 810 814 816 819 821 822 823 823 824 825 828 830 829 831 833 832 834 837 837 839 836 835 834 833 835 836 835 833 833 833 836 840 843 848 852 854 857 859
792 795 798 801 805 808 811 813 816 818 819 820 820 821 824 827 825 830 829 827 834 831 834 832 827 829 828 826 828 828 828 832 832 831 830 831 835 839 844 847 851 853 855
788 792 795 798 803 808 810 811 813 815 816 817 817 818 821 823 823 823 822 819 825 825 819 815 818 819 822 822 823 824 824 826 826 828 827 829 832 837 839 843 846 848 851
787 791 795 798 802 805 807 810 812 814 815 815 815 817 819 817 817 816 817 813 813 816 813 808 811 814 818 820 819 821 820 822 823 825 825 826 827 829 834 838 843 846 848
789 791 794 797 800 804 806 808 810 813 814 815 814 815 816 816 815 814 813 812 811 813 808 809 807 809 813 814 814 816 816 818 819 820 823 823 825 826 829 834 837 839 837
789 791 795 798 800 803 805 808 810 811 812 813 813 813 814 814 813 812 809 809 808 806 806 805 804 807 810 809 810 813 813 813 812 816 818 819 819 822 825 826 829 832 834
788 792 795 799 801 802 804 807 809 810 811 812 812 811 812 812 810 808 806 804 804 805 804 804 803 804 803 804 805 807 807 807 809 808 811 814 817 816 819 824 827 829 830
787 791 796 799 801 802 804 807 808 808 809 811 811 811 811 811 808 805 802 800 800 800 801 800 801 799 798 798 798 800 801 800 803 804 806 808 812 815 815 815 819 822 825
789 793 795 798 800 802 804 806 807 808 808 809 810 810 810 809 807 803 796 796 798 798 797 796 795 795 794 794 795 796 795 797 799 801 802 802 804 806 808 808 811 812 815
790 793 797 798 801 803 803 804 805 807 807 806 806 808 808 808 806 804 802 801 801 799 797 796 794 794 794 794 793 792 792 793 794 795 796 796 798 798 799 801 803 806 808
790 794 797 799 799 801 802 803 804 805 804 805 806 807 808 807 806 804 802 801 800 798 796 794 793 793 792 791 790 789 790 791 790 792 789 789 790 791 794 796 799 801 802
787 789 793 796 797 800 801 801 802 803 803 805 806 806 808 807 805 803 802 800 799 796 794 791 789 788 787 786 786 786 785 785 786 786 785 786 785 787 788 791 792 794 797
789 790 794 795 796 798 799 800 801 804 803 804 807 808 808 807 806 804 801 798 796 794 791 789 788 787 785 784 783 782 781 781 780 780 780 780 781 783 784 785 787 788 790
788 789 793 794 796 797 798 802 805 806 806 807 809 808 809 808 806 803 800 797 794 792 791 789 787 785 783 781 779 777 776 775 775 775 774 774 774 777 778 779 780 782 783
786 789 791 794 795 796 798 800 804 808 808 808 809 809 808 807 804 800 797 795 793 790 790 790 788 786 783 780 777 774 771 769 769 769 768 768 769 769 770 772 773 775 776
788 788 790 793 794 796 797 799 801 804 806 808 809 808 807 805 802 799 796 793 790 790 790 789 787 785 782 779 775 772 769 766 763 762 762 762 762 763 764 765 766 767 768
786 787 789 791 794 796 798 800 801 803 806 807 807 806 804 802 800 798 796 794 794 794 792 789 787 784 780 776 773 770 767 764 761 758 755 755 756 757 755 756 757 758 760
783 785 788 791 794 796 798 799 801 802 805 807 807 807 804 801 798 798 797 797 796 795 792 789 786 783 779 775 772 768 764 760 757 754 752 751 750 749 748 748 748 748 750
785 789 789 792 794 796 798 800 801 802 805 807 808 808 806 803 803 803 801 799 798 796 793 789 785 782 778 774 771 767 762 757 754 750 747 744 743 742 740 739 740 739 740
788 790 792 794 795 796 799 801 802 803 805 806 808 808 806 804 805 804 803 802 800 796 792 788 784 780 777 774 770 765 760 756 751 746 742 739 734 731 730 730 730 730 730
789 791 793 796 797 799 800 801 802 804 806 807 807 807 806 806 805 804 802 801 798 795 791 786 782 778 775 771 767 763 758 755 749 743 737 732 728 722 719 718 718 718 719
790 792 794 798 800 800 800 801 804 805 805 806 806 806 806 806 805 803 801 800 797 793 789 785 780 776 771 767 764 760 756 750 744 737 731 726 722 717 713 707 704 705 706
789 793 796 798 799 799 800 801 803 804 805 805 805 805 805 805 804 802 800 797 794 790 786 782 778 774 770 766 762 757 751 745 738 732 725 719 713 709 706 701 698 691 691
789 792 795 797 798 798 799 800 802 804 804 804 804 804 805 803 802 800 797 794 791 787 784 781 777 773 769 764 759 753 746 738 731 726 720 713 706 701 697 693 688 684 672